Showing default

FLOCK 1C 10, 40023

Orbit data source: Space-Track

FLOCK 1C 10, 40023 is a payload satellite owned by Planet Labs (US) in SSO that was launched on Thu, 19 Jun 2014 UTC via a DNEPR launch vehicle from the Orenburg, Russia (OREN). Payloads include a variety of satellites, spacecraft, and rockets equipped with specific instruments for various scientific and technological missions. These include communications satellites like Starlink; space stations such as the ISS; scientific satellites like the Hubble; Earth observation satellites from companies like Planet Labs, Umbra, and HawkEye 360; GPS; miniature CubeSats for education and research; and military/defense satellites.

Loading next visibility...
FLOCK 1C 10 details
Identifier
40023, 2014-033P
Orbit
SSO
Last TLE update11 hours ago
Origin
Flag of USPlanet Labs (US)
ManufacturerPlanet Labs
MissionNon-operational Commercial Imaging
Bus & MotorCUBESAT 3U, Unknown motor
Mass4.25 kg wet, 4.25 kg dry
Launch date (UTC)
2014-06-19 (10 years ago)
Launch vehicle
DNEPR
Launch site
Orenburg, Russia (OREN)
Object type
Payload
Rocket body
Debris
Shape & HBRBox + 2 Pan, 0.3 m
Radar Cross Section0.108 m², Small (<0.1 m²)

Expand to show TLE details & history

TLE from 11 hours ago
0 FLOCK 1C 10
1 40023U 14033P   24347.93618813  .00064728  00000-0  22481-2 0  9995
2 40023  98.0830 337.6051 0003832 179.5665 180.5577 15.29509321570955
Epoch: 2024-12-12T22:28Z
Definitive object data (Epoch: 2024-12-12T22:28:06.654Z)
Latitude-0.00005°
Longitude-81.53199°
Altitude482.988 km
Speed7.622 km/s
True Right ascension22h 30m 25s
True Declination0° 00' 00"
Sunlit
Object was in daylight at TLE epoch
Visualization TLE readout
Latitude-77.57758°
Longitude59.06575°
Altitude504.471 km
Speed7.611 km/s
Apparent Right ascension19h 21m 45s
Apparent Declination-72° 22' 05"
Sunlit
Object is in daylight
Visualization observer readout
Local Sidereal Time07:31:08
Azimuth178.676° S
Elevation-57.527°
Doppler factor1
Orbital elements
Apogee altitude476.887 km
Perigee altitude471.636 km
Semi-major axis6,852.399 km
Eccentricity0.0003832
Inclination98.083°
RAAN337.6051°
Arg. of periapsis179.5665°
True anomaly180.55727°
Mean anomaly180.5577°
Eccentric anomaly180.55749°
Mean motion3.8263 °/min
BSTAR0.0022481
Orbital period94.09 mins
Loading maneuver chart data...
Loading historical data...
Loading historical data...
Loading historical data...
Loading historical data...
Loading historical data...
Loading historical data...
Loading historical data...

FLOCK 1C 10 Visibility forecast

Observer location: undefined°, undefined

Span
Click to sort rows by Start time (UTC) header in descending order
Start Az.
Max El. time (UTC)
Max El. Az.
Max El.
End time (UTC)
End Az.
4 mins2024-12-13 11:36:26.909Z53.376° ENE2024-12-13 11:38:26.909Z90.086° ESE17.046°2024-12-13 11:40:26.909Z130.677° SE
4 mins2024-12-13 13:10:26.909Z325.112° NNW2024-12-13 13:11:26.909Z301.612° NW21.625°2024-12-13 13:14:26.909Z237.962° WSW
5 mins2024-12-13 23:43:26.909Z179.756° S2024-12-13 23:45:26.909Z222.992° SW40.701°2024-12-13 23:48:26.909Z338.158° N
|